sat.trackr.live / text

‹ back to catalog

KUIPER-00524

NORAD 68892 · 2026-095AE

PAYLOAD ACTIVE UNKNOWN

§ Identity

Operator
Country
US
Launch date
2026-04-28
Launch site
AFETR
Launch vehicle
Mass (kg)
RCS (m²)

External: N2YO · Heavens-Above · Gunter

§ Orbital elements

Epoch: 2026-05-24T23:56:48.057216Z

Period
93.60 min
Inclination
51.8825°
Eccentricity
0.0001680
Mean motion
15.38433265 rev/d
Perigee alt
449.6 km
Apogee alt
451.9 km
Semi-major
6,828.9 km
B*
1.0733e-3
RAAN
354.3759°
Arg perigee
196.0854°
Mean anomaly
164.0080°
Rev number
416

§ Raw data

KUIPER-005241 68892U 26095AE  26144.99777844  .00041165  00000+0  10733-2 0  99992 68892  51.8825 354.3759 0001680 196.0854 164.0080 15.38433265  4168

JSON: /api/v1/satellites/68892 · /tle

For live sub-satellite position, see the globe view (requires WebGL).

§ Visibility from observer

Set your observer location to see the next 7 days of passes ≥ 10°. The values pass through the URL so the page stays shareable.

No JS? Fill the form by hand. The geolocation button needs JavaScript.